Location: Robledo de Chavela
(40.5014°N, 4.2377°W)
Time: 03:54:01
(UTC+00:00)

SJ 16-02 - Visible Passes

Search period start: 25 July 2024 00:00
Search period end: 04 August 2024 00:00
Orbit: 593 x 606 km, 75.0° (Epoch: 24 July)

Date Brightness Start Highest point End Pass type
(mag) Time Alt. Az. Time Alt. Az. Time Alt. Az.
25 Jul 2.6 00:39:21 10° NNW 00:42:10 38° N 00:42:10 38° N visible
25 Jul 3.9 23:14:23 10° NE 23:16:05 12° ENE 23:16:11 12° ENE visible
26 Jul 2.9 00:50:33 10° NNW 00:52:54 31° NNW 00:52:54 31° NNW visible
26 Jul 3.5 23:24:20 10° NNE 23:26:56 19° NE 23:26:56 19° NE visible
27 Jul 3.4 01:01:57 10° NW 01:03:39 21° NW 01:03:39 21° NW visible
27 Jul 3.0 23:34:57 10° N 23:37:43 27° NE 23:37:43 27° NE visible
28 Jul 3.8 01:13:40 10° NW 01:14:26 13° NW 01:14:26 13° NW visible
28 Jul 2.8 23:45:49 10° N 23:48:30 34° N 23:48:30 34° N visible
29 Jul 3.0 23:56:55 10° NNW 23:59:19 32° NNW 23:59:19 32° NNW visible
30 Jul 3.5 22:31:01 10° NNE 22:33:25 16° NE 22:33:25 16° NE visible
31 Jul 3.3 00:08:12 10° NNW 00:10:09 24° NW 00:10:09 24° NW visible
31 Jul 3.0 22:41:26 10° N 22:44:16 25° NE 22:44:16 25° NE visible
01 Aug 3.8 00:19:45 10° NW 00:21:00 16° NW 00:21:00 16° NW visible
01 Aug 2.6 22:52:11 10° N 22:55:08 35° NNE 22:55:08 35° NNE visible
02 Aug 4.2 00:31:48 10° WNW 00:31:51 10° WNW 00:31:51 10° WNW visible
02 Aug 2.6 23:03:10 10° NNW 23:06:01 40° N 23:06:01 40° N visible
03 Aug 3.5 21:37:41 10° NNE 21:39:55 14° ENE 21:40:11 14° ENE visible
03 Aug 2.9 23:14:21 10° NNW 23:16:54 33° NW 23:16:54 33° NW visible
